[[{"header":{"parameterUnit":"m.s-1","parameterCategory":2,"la1":30.2991,"la2":30.254,"lo1":-89.0895,"lo2":-89.0444,"dy":0.0017,"dx":0.0017,"nx":28,"ny":28,"refTime":"2025-01-12T09:00:00:Z","depth":"0","parameterNumber":2,"parameterNumberName":"U-component_of_CURRENTS"},"data":[0,0,0,0,0,0,0,0,0,0,0,0,0,0,0,0,0,0,0,0,0,0,0,0,0,0,0,0,0,0,0,0,0,0,0,0,0,0,0,0,0,0,0,0,0,0,0,0,0,0,0,0,0,0,0,0,0,0,0.2149,0.2149,0,0.2199,0.22,0.22,0.2206,0.2206,0.2205,0.2205,0.2212,0.2212,0.2213,0,0,0,0,0,0,0,0,0,0,0,0,0,0.2048,0.205,0.2149,0.215,0.215,0.2199,0.22,0.22,0.2206,0.2206,0.2205,0.2205,0.2212,0.2212,0.2213,0,0,0,0,0,0,0,0,0,0,0,0,0,0.2092,0.205,0.2149,0.2161,0.2162,0.2199,0.22,0.22,0.2206,0.2206,0.2205,0.2205,0.2212,0.2212,0.2213,0.2227,0,0,0.2215,0.2216,0,0,0,0,0,0,0,0,0.209,0.2096,0.2158,0.216,0.2162,0.2198,0.2167,0.2208,0.2206,0.2187,0.2205,0.2204,0.2205,0.2206,0.2214,0.2227,0.2227,0.2215,0.2216,0.2216,0.2216,0,0,0,0,0,0,0,0.2087,0.2094,0.2167,0.2159,0.2161,0.2161,0.2166,0.2175,0.2196,0.2189,0.219,0.2199,0.2205,0.2214,0.2214,0.2227,0.2215,0.2216,0.2216,0.2217,0.2278,0.2279,0,0,0,0,0,0,0.2086,0.2091,0.2165,0.2168,0.2126,0.2163,0.2169,0.2185,0.2196,0.2199,0.2199,0.2199,0.2213,0.2214,0.2215,0.2256,0.2216,0.2217,0.2217,0.2277,0.2278,0.2279,0,0,0,0,0,0,0.2084,0.2093,0.2163,0.2132,0.2141,0.2166,0.2183,0.2186,0.2197,0.2205,0.2206,0.2208,0.2212,0.2214,0.2233,0.2255,0.2217,0.2218,0.2275,0.2277,0.2279,0.2322,0,0,0,0,0,0,0.2081,0.2092,0.21,0.2132,0.2143,0.2191,0.2184,0.2188,0.2205,0.2205,0.2213,0.2213,0.2212,0.2232,0.2233,0.2255,0.2218,0.2274,0.2276,0.2278,0.2319,0.2325,0.233,0,0,0,0,0,0.2077,0.2093,0.21,0.2109,0.2155,0.2192,0.2197,0.2211,0.2206,0.2217,0.2224,0.2213,0.2247,0.2233,0.2235,0.2257,0.2273,0.2275,0.2278,0.2316,0.2324,0.233,0,0,0,0,0,0,0.205,0.2096,0.2104,0.2132,0.2162,0.2194,0.2207,0.2214,0.223,0.2228,0.2227,0.2229,0.2254,0.2251,0.2236,0.2282,0.2258,0.2262,0.2287,0.2294,0.2299,0.2301,0.2219,0,0,0,0,0,0.2049,0.2075,0.2115,0.2137,0.2154,0.218,0.2195,0.2208,0.2228,0.2234,0.2239,0.2249,0.2268,0.2275,0.2287,0.2311,0.232,0.2328,0.2333,0.2338,0.2341,0.2375,0.2384,0.2288,0.2288,0.2288,0,0,0.2043,0.2073,0.2086,0.2133,0.2156,0.2188,0.2188,0.2218,0.2242,0.2232,0.2259,0.2267,0.2278,0.2309,0.232,0.2308,0.2373,0.2341,0.2345,0.2346,0.2379,0.2388,0.2396,0.229,0.229,0.2289,0,0,0.2049,0.2074,0.2099,0.2129,0.2172,0.2193,0.2203,0.2239,0.2254,0.2283,0.2286,0.2309,0.2328,0.2349,0.2359,0.2402,0.2401,0.2405,0.2435,0.2469,0.2477,0.2484,0.2521,0.2531,0.2409,0.2409,0.2409,0,0.2037,0.208,0.211,0.2145,0.2171,0.2197,0.2229,0.2253,0.2287,0.2307,0.2295,0.2346,0.235,0.24,0.2415,0.2415,0.2433,0.2408,0.2476,0.2483,0.249,0.2526,0.2536,0.2411,0.2411,0.2411,0.241,0,0.2068,0.2101,0.212,0.2174,0.2204,0.2237,0.2278,0.2305,0.232,0.2343,0.239,0.2403,0.2434,0.2442,0.244,0.2496,0.2495,0.2478,0.2458,0.2502,0.2537,0.2547,0.2415,0.2414,0.2413,0.2412,0,0,0.2041,0.2125,0.213,0.2163,0.2223,0.2252,0.2299,0.2354,0.2388,0.2415,0.2461,0.2493,0.25,0.2513,0.252,0.2546,0.261,0.2533,0.2534,0.2568,0.2692,0.2741,0.2756,0.2605,0.2607,0.2608,0.2703,0,0.2054,0.212,0.216,0.2217,0.2255,0.2299,0.2341,0.2391,0.2428,0.2477,0.2505,0.2547,0.2528,0.2549,0.2575,0.2604,0.2637,0.2586,0.2646,0.2648,0.2684,0.277,0.2775,0.2864,0.2713,0.2714,0.2716,0,0.207,0.2115,0.2172,0.2251,0.2271,0.2303,0.238,0.2425,0.25,0.2529,0.2577,0.26,0.2659,0.2625,0.2701,0.2671,0.2686,0.2699,0.2703,0.2739,0.2716,0.2793,0.2888,0.2888,0.2731,0.273,0.2729,0,0.2041,0.2123,0.2169,0.2195,0.2283,0.2313,0.2359,0.2435,0.2483,0.2567,0.2609,0.2671,0.2715,0.2742,0.2782,0.2745,0.2863,0.2813,0.2872,0.2875,0.2887,0.2889,0.2987,0.2863,0.2863,0.2863,0.2863,0,0.2044,0.2078,0.2157,0.2182,0.2234,0.23,0.2357,0.2419,0.2505,0.2574,0.2631,0.2704,0.2745,0.2818,0.2823,0.2907,0.2903,0.2905,0.2915,0.2904,0.2907,0.2911,0.2887,0.2866,0.2866,0.2865,0.2864,0,0.2003,0.2059,0.2111,0.2196,0.2222,0.2256,0.2349,0.2395,0.2486,0.2582,0.2615,0.2747,0.286,0.2908,0.298,0.2981,0.2995,0.3055,0.3049,0.3057,0.3097,0.3074,0.301,0.2904,0.3135,0.3137,0.3139,0,0.1987,0.2012,0.2097,0.2126,0.2162,0.2219,0.2263,0.2367,0.2432,0.2615,0.2669,0.282,0.2936,0.3086,0.3139,0.3202,0.3079,0.3213,0.3139,0.3136,0.3117,0.2937,0.2836,0.3172,0.3174,0.3176,0.3177,0,0.1952,0.198,0.2024,0.208,0.2126,0.2179,0.226,0.2309,0.2451,0.2554,0.2726,0.2842,0.3049,0.3164,0.3272,0.3291,0.3127,0.3245,0.3243,0.3173,0.2981,0.2872,0.307,0.319,0.3189,0.3188,0.3187,0.3186,0.1913,0.1929,0.1986,0.2036,0.2085,0.2139,0.2161,0.2272,0.2379,0.2545,0.2707,0.2888,0.3146,0.333,0.3323,0.3388,0.3233,0.3341,0.3321,0.3142,0.302,0.326,0.3387,0.3387,0.3387,0.3387,0.3386,0,0.1862,0.1898,0.1942,0.1997,0.202,0.2072,0.2158,0.2184,0.2286,0.2508,0.2662,0.3002,0.32,0.3359,0.3559,0.3505,0.3264,0.3426,0.3185,0.308,0.3338,0.3326,0.3445,0.3445,0.3445,0.3445,0.3445,0.3445,0.1838,0.1861,0.1893,0.1919,0.1953,0.196,0.1991,0.2061,0.2203,0.2435,0.2655,0.2871,0.3321,0.372,0.3789,0.3666,0.334,0.3248,0.3121,0.3377,0.3366,0.3355,0.334,0.3461,0.3461,0.2755,0.2751,0.2748]},{"header":{"parameterUnit":"m.s-1","parameterCategory":2,"la1":30.2991,"la2":30.254,"lo1":-89.0895,"lo2":-89.0444,"dy":0.0017,"dx":0.0017,"nx":28,"ny":28,"refTime":"2025-01-12T09:00:00:Z","depth":"0","parameterNumber":3,"parameterNumberName":"V-component_of_CURRENTS"},"data":[0,0,0,0,0,0,0,0,0,0,0,0,0,0,0,0,0,0,0,0,0,0,0,0,0,0,0,0,0,0,0,0,0,0,0,0,0,0,0,0,0,0,0,0,0,0,0,0,0,0,0,0,0,0,0,0,0,0,-0.0469,-0.0469,0,-0.0525,-0.0526,-0.0527,-0.0566,-0.0566,-0.0566,-0.0566,-0.0631,-0.0633,-0.0634,0,0,0,0,0,0,0,0,0,0,0,0,0,-0.0444,-0.0444,-0.0469,-0.0469,-0.047,-0.0525,-0.0526,-0.0527,-0.0566,-0.0566,-0.0566,-0.0567,-0.0631,-0.0633,-0.0634,0,0,0,0,0,0,0,0,0,0,0,0,0,-0.0474,-0.0444,-0.0469,-0.0496,-0.0499,-0.0525,-0.0526,-0.0527,-0.0566,-0.0566,-0.0566,-0.0567,-0.063,-0.0632,-0.0635,-0.0641,0,0,-0.0641,-0.0642,0,0,0,0,0,0,0,0,-0.0472,-0.0475,-0.0491,-0.0494,-0.0497,-0.0538,-0.0541,-0.0565,-0.0565,-0.0541,-0.0566,-0.0567,-0.06,-0.0605,-0.0616,-0.0644,-0.0647,-0.0642,-0.0643,-0.0644,-0.0645,0,0,0,0,0,0,0,-0.047,-0.0473,-0.0492,-0.0492,-0.0495,-0.0522,-0.0526,-0.0546,-0.0568,-0.0543,-0.0546,-0.0551,-0.0602,-0.0613,-0.0617,-0.0648,-0.0642,-0.0644,-0.0645,-0.0646,-0.0692,-0.0692,0,0,0,0,0,0,-0.0458,-0.047,-0.049,-0.0493,-0.0484,-0.0522,-0.0527,-0.0525,-0.0568,-0.0575,-0.0551,-0.0553,-0.0609,-0.0615,-0.062,-0.0623,-0.0644,-0.0646,-0.0647,-0.0692,-0.0692,-0.0692,0,0,0,0,0,0,-0.0458,-0.0459,-0.0488,-0.0483,-0.0489,-0.0521,-0.052,-0.0526,-0.0535,-0.0574,-0.0581,-0.0553,-0.061,-0.0617,-0.0634,-0.0626,-0.0647,-0.0649,-0.0692,-0.0692,-0.0692,-0.0633,0,0,0,0,0,0,-0.0457,-0.0459,-0.0454,-0.0482,-0.0488,-0.0494,-0.052,-0.0527,-0.0538,-0.0541,-0.0578,-0.0585,-0.0611,-0.0631,-0.0636,-0.0629,-0.0651,-0.0693,-0.0692,-0.0692,-0.0635,-0.0631,-0.0627,0,0,0,0,0,-0.0455,-0.0441,-0.0453,-0.0455,-0.048,-0.0493,-0.0498,-0.0524,-0.0537,-0.0535,-0.0563,-0.0583,-0.0633,-0.0632,-0.0639,-0.0632,-0.0693,-0.0692,-0.0692,-0.0637,-0.0632,-0.0628,0,0,0,0,0,0,-0.0425,-0.0445,-0.0458,-0.045,-0.0468,-0.0499,-0.0499,-0.0518,-0.0539,-0.0542,-0.058,-0.0589,-0.0603,-0.0626,-0.0623,-0.0646,-0.0667,-0.0668,-0.0623,-0.0618,-0.0614,-0.0592,-0.0653,0,0,0,0,0,-0.0417,-0.0412,-0.0437,-0.0431,-0.0437,-0.0468,-0.0477,-0.0493,-0.0516,-0.0526,-0.0553,-0.0583,-0.0607,-0.0618,-0.0643,-0.0652,-0.0676,-0.0654,-0.065,-0.0646,-0.0634,-0.0669,-0.0666,-0.0691,-0.0691,-0.0691,0,0,-0.0403,-0.0413,-0.0411,-0.0425,-0.0441,-0.0438,-0.0474,-0.0479,-0.0478,-0.0529,-0.0535,-0.0569,-0.0607,-0.062,-0.0628,-0.0637,-0.0652,-0.0646,-0.0642,-0.0632,-0.0668,-0.0666,-0.0663,-0.0691,-0.0691,-0.0691,0,0,-0.0371,-0.0383,-0.0368,-0.0379,-0.0396,-0.0413,-0.0411,-0.0439,-0.0453,-0.0465,-0.0503,-0.0529,-0.0564,-0.0589,-0.0607,-0.0596,-0.0631,-0.0607,-0.0567,-0.06,-0.0598,-0.0597,-0.0621,-0.0623,-0.0603,-0.0603,-0.0603,0,-0.0354,-0.034,-0.0366,-0.0356,-0.0356,-0.0396,-0.0379,-0.0399,-0.0429,-0.0436,-0.0458,-0.0514,-0.0548,-0.0564,-0.0563,-0.0585,-0.0608,-0.058,-0.0594,-0.0593,-0.0593,-0.0618,-0.062,-0.06,-0.0601,-0.0601,-0.0601,0,-0.0313,-0.0304,-0.0295,-0.0295,-0.0297,-0.029,-0.0316,-0.0324,-0.0348,-0.0372,-0.0396,-0.0449,-0.048,-0.05,-0.0528,-0.054,-0.0559,-0.0586,-0.0602,-0.0586,-0.0615,-0.0618,-0.0596,-0.0597,-0.0598,-0.0599,0,0,-0.0267,-0.0266,-0.0262,-0.0249,-0.0263,-0.0256,-0.0255,-0.0263,-0.0258,-0.0303,-0.0302,-0.0359,-0.0393,-0.0415,-0.0461,-0.0492,-0.0514,-0.0531,-0.0534,-0.0547,-0.0582,-0.0602,-0.0608,-0.0545,-0.0545,-0.0545,-0.0602,0,-0.0227,-0.019,-0.0202,-0.0164,-0.0146,-0.0175,-0.0167,-0.0181,-0.0208,-0.0219,-0.0282,-0.0302,-0.036,-0.0375,-0.0415,-0.0488,-0.052,-0.0495,-0.0602,-0.0605,-0.0618,-0.0611,-0.0627,-0.0679,-0.0605,-0.0606,-0.0606,0,-0.018,-0.0161,-0.0116,-0.0093,-0.0087,-0.0073,-0.0061,-0.0063,-0.0097,-0.0119,-0.0158,-0.0208,-0.0258,-0.0313,-0.0422,-0.0405,-0.0483,-0.0545,-0.0549,-0.0587,-0.0631,-0.0685,-0.0688,-0.0893,-0.0612,-0.0611,-0.0611,0,-0.0126,-0.0096,-0.0055,-0.0049,-0.0035,-0.0018,-0.0014,-0.0031,-0.0021,-0.0058,-0.0054,-0.0132,-0.0162,-0.0271,-0.0397,-0.0411,-0.0519,-0.0558,-0.0648,-0.0651,-0.0693,-0.0699,-0.0899,-0.0633,-0.0633,-0.0633,-0.0632,0,-0.0073,-0.0039,-0.0027,-0.0003,0.0051,0.0037,0.0081,0.0068,0.006,0.0089,0.0001,0.0012,-0.0153,-0.0234,-0.0365,-0.0508,-0.0497,-0.0634,-0.0666,-0.0674,-0.0676,-0.0881,-0.1004,-0.0635,-0.0634,-0.0634,-0.0633,0,-0.0019,-0.0014,0.0036,0.0062,0.0078,0.0114,0.0149,0.0177,0.0156,0.0191,0.0187,0.0118,0.0016,-0.0152,-0.0323,-0.0454,-0.0727,-0.0654,-0.0646,-0.0676,-0.0954,-0.1072,-0.1319,-0.1413,-0.0764,-0.0765,-0.0765,0,0.0012,0.0043,0.0091,0.0129,0.0144,0.0191,0.0229,0.0224,0.0265,0.027,0.0305,0.0218,0.0188,-0.0076,-0.0329,-0.0563,-0.0761,-0.074,-0.0775,-0.0969,-0.1125,-0.1225,-0.1294,-0.0811,-0.0812,-0.0813,-0.0813,0,0.0075,0.0088,0.0131,0.0204,0.0254,0.0315,0.0372,0.0422,0.0432,0.0469,0.0514,0.0488,0.0235,0.0003,-0.0335,-0.0521,-0.0917,-0.0764,-0.0977,-0.1186,-0.1298,-0.1403,-0.0771,-0.0821,-0.082,-0.082,-0.0819,-0.0819,0.0124,0.0164,0.0218,0.0292,0.0352,0.0438,0.0506,0.0579,0.0663,0.0744,0.0696,0.0699,0.0313,-0.0144,-0.0436,-0.0982,-0.0983,-0.1137,-0.1265,-0.1347,-0.145,-0.0825,-0.0904,-0.0904,-0.0904,-0.0904,-0.0904,0,0.0188,0.0232,0.0304,0.0392,0.047,0.0487,0.0606,0.0683,0.081,0.0887,0.0929,0.0734,0.025,-0.0259,-0.097,-0.1377,-0.1557,-0.1628,-0.179,-0.1833,-0.1285,-0.1298,-0.1452,-0.1452,-0.1452,-0.1452,-0.1451,-0.1451,0.0225,0.0306,0.0341,0.048,0.0544,0.0658,0.0734,0.0853,0.0942,0.1037,0.1044,0.1004,0.0597,-0.0718,-0.1657,-0.1893,-0.221,-0.2304,-0.2441,-0.2088,-0.2052,-0.2018,-0.206,-0.2371,-0.2372,-0.2934,-0.294,-0.2945]}],[{"header":{"parameterUnit":"m.s-1","parameterCategory":2,"la1":30.2991,"la2":30.254,"lo1":-89.0895,"lo2":-89.0444,"dy":0.0017,"dx":0.0017,"nx":28,"ny":28,"refTime":"2025-01-12T09:00:00:Z","depth":"2","parameterNumber":2,"parameterNumberName":"U-component_of_CURRENTS"},"data":[0,0,0,0,0,0,0,0,0,0,0,0,0,0,0,0,0,0,0,0,0,0,0,0,0,0,0,0,0,0,0,0,0,0,0,0,0,0,0,0,0,0,0,0,0,0,0,0,0,0,0,0,0,0,0,0,0,0,0.2114,0.2114,0,0.2163,0.2163,0.2164,0.2171,0.2171,0.217,0.217,0.2179,0.218,0.218,0,0,0,0,0,0,0,0,0,0,0,0,0,0.2016,0.2018,0.2114,0.2114,0.2115,0.2163,0.2163,0.2164,0.2171,0.2171,0.217,0.217,0.2179,0.218,0.218,0,0,0,0,0,0,0,0,0,0,0,0,0,0.2059,0.2018,0.2114,0.2126,0.2128,0.2163,0.2163,0.2164,0.2171,0.2171,0.217,0.217,0.2179,0.218,0.218,0.2192,0,0,0.2183,0.2183,0,0,0,0,0,0,0,0,0.2057,0.2063,0.2124,0.2125,0.2127,0.2162,0.2133,0.2172,0.2171,0.2152,0.217,0.217,0.2172,0.2173,0.2181,0.2193,0.2193,0.2183,0.2183,0.2183,0.2184,0,0,0,0,0,0,0,0.2054,0.2061,0.2131,0.2124,0.2127,0.2126,0.2132,0.214,0.2161,0.2154,0.2155,0.2164,0.2172,0.218,0.2181,0.2193,0.2183,0.2183,0.2184,0.2184,0.2246,0.2247,0,0,0,0,0,0,0.2054,0.2058,0.2129,0.2133,0.2093,0.2129,0.2135,0.215,0.2162,0.2164,0.2165,0.2164,0.2179,0.218,0.2181,0.2223,0.2183,0.2184,0.2185,0.2245,0.2247,0.2248,0,0,0,0,0,0,0.2051,0.206,0.2128,0.2097,0.2106,0.2131,0.2148,0.2151,0.2163,0.2171,0.2172,0.2174,0.2179,0.218,0.22,0.2222,0.2184,0.2185,0.2244,0.2245,0.2247,0.229,0,0,0,0,0,0,0.2048,0.2059,0.2067,0.2098,0.2108,0.2155,0.2148,0.2152,0.217,0.217,0.2179,0.2179,0.2178,0.2199,0.22,0.2223,0.2186,0.2242,0.2244,0.2247,0.2287,0.2293,0.2298,0,0,0,0,0,0.2045,0.206,0.2068,0.2076,0.212,0.2156,0.2161,0.2175,0.2171,0.2183,0.219,0.2179,0.2214,0.22,0.2202,0.2225,0.2241,0.2244,0.2246,0.2285,0.2292,0.2298,0,0,0,0,0,0,0.2019,0.2064,0.2072,0.2099,0.2128,0.2158,0.2172,0.2179,0.2195,0.2194,0.2194,0.2195,0.2222,0.2219,0.2203,0.2251,0.2227,0.223,0.2255,0.2262,0.2268,0.2269,0.2186,0,0,0,0,0,0.2019,0.2045,0.2083,0.2104,0.2121,0.2146,0.2161,0.2174,0.2193,0.22,0.2206,0.2216,0.2235,0.2243,0.2255,0.2279,0.2288,0.2296,0.2302,0.2307,0.231,0.2343,0.2352,0.2257,0.2257,0.2257,0,0,0.2014,0.2043,0.2056,0.2101,0.2124,0.2154,0.2154,0.2184,0.2208,0.2198,0.2226,0.2235,0.2246,0.2277,0.2288,0.2276,0.2342,0.231,0.2314,0.2315,0.2347,0.2356,0.2364,0.2259,0.2258,0.2258,0,0,0.2021,0.2045,0.207,0.2099,0.2141,0.2161,0.2171,0.2206,0.2221,0.225,0.2254,0.2278,0.2297,0.2317,0.2328,0.2371,0.2369,0.2375,0.2405,0.2438,0.2446,0.2453,0.2488,0.2498,0.2378,0.2378,0.2378,0,0.201,0.2052,0.2081,0.2115,0.214,0.2165,0.2197,0.222,0.2254,0.2275,0.2263,0.2314,0.2319,0.2369,0.2385,0.2384,0.2402,0.2378,0.2445,0.2452,0.2459,0.2493,0.2503,0.2381,0.238,0.238,0.238,0,0.204,0.2073,0.2092,0.2144,0.2173,0.2206,0.2245,0.2273,0.2288,0.2311,0.2358,0.2371,0.2403,0.2411,0.241,0.2466,0.2464,0.2447,0.2426,0.2471,0.2504,0.2514,0.2384,0.2383,0.2383,0.2382,0,0,0.2015,0.2097,0.2102,0.2133,0.2193,0.2221,0.2267,0.2321,0.2355,0.2382,0.2428,0.2461,0.2469,0.2482,0.2489,0.2515,0.2578,0.2502,0.2503,0.2535,0.2658,0.2699,0.2714,0.2573,0.2575,0.2576,0.2667,0,0.2029,0.2092,0.2131,0.2187,0.2224,0.2267,0.2309,0.2358,0.2395,0.2443,0.2472,0.2514,0.2497,0.2518,0.2544,0.2572,0.2604,0.2555,0.2612,0.2614,0.2643,0.2727,0.2505,0.2571,0.2677,0.2678,0.268,0,0.2044,0.2088,0.2144,0.222,0.224,0.2272,0.2348,0.2392,0.2466,0.2496,0.2544,0.2567,0.2626,0.2593,0.2668,0.2638,0.2653,0.2665,0.2669,0.2698,0.2674,0.2542,0.2585,0.2696,0.2695,0.2693,0.2692,0,0.2017,0.2097,0.2141,0.2167,0.2252,0.2283,0.2328,0.2403,0.2451,0.2534,0.2576,0.2637,0.2681,0.2707,0.2747,0.2711,0.2825,0.2776,0.2828,0.2831,0.2649,0.2634,0.2825,0.2825,0.2825,0.2824,0.2824,0,0.2019,0.2053,0.213,0.2155,0.2207,0.2271,0.2328,0.2388,0.2473,0.2542,0.2599,0.267,0.2711,0.2781,0.2787,0.2864,0.2864,0.286,0.2869,0.2661,0.2647,0.2749,0.2739,0.2828,0.2827,0.2826,0.2826,0,0.198,0.2035,0.2085,0.2169,0.2195,0.2229,0.2321,0.2367,0.2457,0.2551,0.2584,0.2713,0.2821,0.2868,0.2937,0.2936,0.2986,0.3004,0.2772,0.2753,0.2953,0.2944,0.3071,0.3074,0.3076,0.3078,0.3079,0,0.1965,0.199,0.2073,0.2101,0.2137,0.2194,0.2237,0.2339,0.2403,0.2582,0.2635,0.2782,0.2887,0.303,0.3042,0.3091,0.308,0.2914,0.2811,0.299,0.2984,0.2972,0.296,0.2576,0.2573,0.2571,0.2569,0,0.1931,0.1959,0.2002,0.2057,0.2103,0.2154,0.2234,0.2281,0.2421,0.2517,0.2681,0.2787,0.2951,0.2934,0.302,0.3001,0.289,0.2876,0.3116,0.2574,0.2537,0.2528,0.2529,0.2549,0.2551,0.2553,0.2554,0.2555,0.1893,0.1909,0.1965,0.2014,0.2062,0.2114,0.2135,0.2222,0.232,0.2429,0.261,0.2675,0.2765,0.2796,0.276,0.2718,0.29,0.2749,0.2748,0.2752,0.2704,0.2676,0.2704,0.2707,0.2709,0.2712,0.2713,0,0.1836,0.1878,0.1921,0.1975,0.1986,0.2049,0.2131,0.2116,0.218,0.2299,0.2402,0.2301,0.2355,0.2415,0.2353,0.242,0.2306,0.2307,0.2115,0.2142,0.2164,0.2076,0.1915,0.1912,0.1909,0.1906,0,0,0.1811,0.1829,0.186,0.1878,0.1918,0.1901,0.193,0.1925,0.1969,0.1969,0.1985,0.2177,0.2346,0.2062,0.2088,0.1983,0.2015,0.1907,0.256,0.2358,0.2374,0.2454,0.2358,0,0,0,0,0]},{"header":{"parameterUnit":"m.s-1","parameterCategory":2,"la1":30.2991,"la2":30.254,"lo1":-89.0895,"lo2":-89.0444,"dy":0.0017,"dx":0.0017,"nx":28,"ny":28,"refTime":"2025-01-12T09:00:00:Z","depth":"2","parameterNumber":3,"parameterNumberName":"V-component_of_CURRENTS"},"data":[0,0,0,0,0,0,0,0,0,0,0,0,0,0,0,0,0,0,0,0,0,0,0,0,0,0,0,0,0,0,0,0,0,0,0,0,0,0,0,0,0,0,0,0,0,0,0,0,0,0,0,0,0,0,0,0,0,0,-0.036,-0.036,0,-0.0414,-0.0415,-0.0416,-0.0456,-0.0457,-0.0457,-0.0457,-0.0522,-0.0523,-0.0524,0,0,0,0,0,0,0,0,0,0,0,0,0,-0.0336,-0.0336,-0.036,-0.036,-0.0361,-0.0414,-0.0415,-0.0416,-0.0456,-0.0457,-0.0457,-0.0458,-0.0521,-0.0523,-0.0524,0,0,0,0,0,0,0,0,0,0,0,0,0,-0.0364,-0.0336,-0.0359,-0.0387,-0.039,-0.0414,-0.0415,-0.0416,-0.0456,-0.0457,-0.0457,-0.0458,-0.0521,-0.0523,-0.0525,-0.0528,0,0,-0.0531,-0.0532,0,0,0,0,0,0,0,0,-0.0363,-0.0365,-0.0383,-0.0385,-0.0389,-0.0429,-0.043,-0.0454,-0.0456,-0.0432,-0.0457,-0.0458,-0.0491,-0.0495,-0.0505,-0.0531,-0.0534,-0.0531,-0.0533,-0.0534,-0.0534,0,0,0,0,0,0,0,-0.0361,-0.0363,-0.0382,-0.0383,-0.0387,-0.0413,-0.0417,-0.0435,-0.0458,-0.0434,-0.0437,-0.0442,-0.0493,-0.0503,-0.0507,-0.0535,-0.0531,-0.0533,-0.0534,-0.0535,-0.0579,-0.0579,0,0,0,0,0,0,-0.035,-0.0361,-0.038,-0.0383,-0.0376,-0.0412,-0.0417,-0.0416,-0.0458,-0.0465,-0.0442,-0.0444,-0.0499,-0.0504,-0.0509,-0.0513,-0.0533,-0.0535,-0.0537,-0.0579,-0.0579,-0.0579,0,0,0,0,0,0,-0.0349,-0.0351,-0.0378,-0.0374,-0.0379,-0.0412,-0.041,-0.0417,-0.0427,-0.0464,-0.0471,-0.0446,-0.05,-0.0506,-0.0524,-0.0516,-0.0536,-0.0538,-0.0579,-0.0579,-0.0579,-0.0523,0,0,0,0,0,0,-0.0348,-0.035,-0.0346,-0.0373,-0.0379,-0.0384,-0.041,-0.0417,-0.0429,-0.0433,-0.0469,-0.0476,-0.0501,-0.052,-0.0526,-0.0519,-0.054,-0.0579,-0.0579,-0.0579,-0.0525,-0.0521,-0.0517,0,0,0,0,0,-0.0347,-0.0333,-0.0345,-0.0348,-0.0371,-0.0383,-0.0388,-0.0415,-0.0429,-0.0427,-0.0455,-0.0475,-0.0523,-0.0521,-0.0528,-0.0522,-0.0579,-0.0579,-0.0579,-0.0526,-0.0522,-0.0517,0,0,0,0,0,0,-0.0319,-0.0337,-0.0351,-0.0343,-0.036,-0.039,-0.0391,-0.041,-0.0431,-0.0435,-0.0472,-0.048,-0.0494,-0.0516,-0.0513,-0.0536,-0.0555,-0.0556,-0.0513,-0.0509,-0.0505,-0.0484,-0.0542,0,0,0,0,0,-0.0311,-0.0307,-0.033,-0.0324,-0.033,-0.0361,-0.037,-0.0386,-0.0408,-0.0419,-0.0446,-0.0475,-0.0498,-0.0508,-0.0532,-0.054,-0.0564,-0.0543,-0.0539,-0.0535,-0.0523,-0.0558,-0.0556,-0.0578,-0.0578,-0.0578,0,0,-0.0299,-0.0308,-0.0306,-0.0319,-0.0335,-0.0332,-0.0367,-0.0373,-0.0372,-0.0421,-0.0428,-0.0462,-0.0498,-0.051,-0.0518,-0.0526,-0.0542,-0.0535,-0.0532,-0.0522,-0.0557,-0.0555,-0.0553,-0.0578,-0.0578,-0.0578,0,0,-0.0267,-0.028,-0.0265,-0.0275,-0.0293,-0.0309,-0.0308,-0.0335,-0.0349,-0.0362,-0.0398,-0.0424,-0.0458,-0.0481,-0.0498,-0.0486,-0.0522,-0.0498,-0.046,-0.0493,-0.0492,-0.049,-0.0516,-0.0517,-0.0495,-0.0495,-0.0494,0,-0.0252,-0.0238,-0.0263,-0.0253,-0.0253,-0.0293,-0.0276,-0.0295,-0.0325,-0.0332,-0.0355,-0.0409,-0.0442,-0.0456,-0.0456,-0.0476,-0.05,-0.0472,-0.0487,-0.0487,-0.0486,-0.0513,-0.0515,-0.0492,-0.0492,-0.0492,-0.0493,0,-0.0212,-0.0203,-0.0195,-0.0193,-0.0195,-0.0189,-0.0214,-0.0222,-0.0248,-0.0271,-0.0295,-0.0346,-0.0376,-0.0396,-0.0423,-0.0435,-0.0455,-0.0479,-0.0495,-0.0481,-0.051,-0.0513,-0.0488,-0.0489,-0.049,-0.049,0,0,-0.017,-0.0166,-0.0163,-0.0149,-0.0163,-0.0155,-0.0154,-0.0162,-0.0157,-0.0203,-0.0202,-0.0257,-0.0292,-0.0313,-0.0357,-0.0388,-0.0413,-0.0428,-0.0431,-0.0445,-0.0482,-0.0503,-0.0509,-0.0443,-0.0443,-0.0443,-0.0503,0,-0.013,-0.0093,-0.0104,-0.0065,-0.0047,-0.0076,-0.0067,-0.0081,-0.0108,-0.012,-0.0181,-0.0202,-0.0259,-0.0275,-0.0315,-0.0386,-0.0419,-0.0394,-0.05,-0.0503,-0.0518,-0.0513,-0.0472,-0.0523,-0.0507,-0.0507,-0.0508,0,-0.0085,-0.0065,-0.002,0.0004,0.0011,0.0025,0.0036,0.0035,0.0001,-0.0022,-0.0061,-0.0111,-0.0161,-0.0215,-0.0325,-0.0307,-0.0385,-0.0446,-0.045,-0.0489,-0.053,-0.0536,-0.053,-0.0514,-0.0513,-0.0513,-0.0513,0,-0.0033,-0.0003,0.0038,0.0045,0.0061,0.0077,0.0081,0.0064,0.0074,0.0036,0.004,-0.0038,-0.0068,-0.0177,-0.0303,-0.0316,-0.0424,-0.0461,-0.0552,-0.0555,-0.0549,-0.0551,-0.0537,-0.0537,-0.0537,-0.0537,-0.0537,0,0.0017,0.0051,0.0065,0.0088,0.0141,0.0129,0.0172,0.0159,0.0151,0.018,0.0093,0.0103,-0.0061,-0.0142,-0.0272,-0.0415,-0.0404,-0.054,-0.0571,-0.053,-0.0528,-0.0545,-0.0545,-0.0539,-0.0538,-0.0538,-0.0538,0,0.0069,0.0075,0.0124,0.0152,0.0167,0.0201,0.0237,0.0265,0.0244,0.0279,0.0274,0.0205,0.0101,-0.0064,-0.0235,-0.0364,-0.0507,-0.0563,-0.0499,-0.0522,-0.0624,-0.0621,-0.0672,-0.0673,-0.0674,-0.0675,-0.0676,0,0.0098,0.0129,0.0177,0.0214,0.0229,0.0275,0.0313,0.0309,0.035,0.0355,0.039,0.03,0.0269,0.0007,-0.0234,-0.0464,-0.0505,-0.0594,-0.0618,-0.0612,-0.0638,-0.0633,-0.0628,-0.059,-0.0589,-0.0589,-0.0589,0,0.0159,0.0171,0.0214,0.0286,0.0335,0.0396,0.0453,0.0503,0.0514,0.055,0.0593,0.0565,0.0321,0.0108,-0.0224,-0.0385,-0.0558,-0.0602,-0.0609,-0.0562,-0.054,-0.0563,-0.056,-0.0589,-0.0589,-0.0589,-0.0589,-0.0589,0.0205,0.0245,0.0299,0.037,0.043,0.0516,0.0584,0.0662,0.0746,0.0825,0.0768,0.0746,0.047,0.0076,-0.0223,-0.0547,-0.0545,-0.0655,-0.0653,-0.0651,-0.0632,-0.0612,-0.0671,-0.0671,-0.0672,-0.0672,-0.0672,0,0.0275,0.031,0.0382,0.0468,0.0554,0.0562,0.0682,0.0773,0.0905,0.0955,0.0991,0.0769,0.0494,0.0165,-0.0303,-0.0591,-0.0611,-0.0688,-0.064,-0.0638,-0.0637,-0.0616,-0.0652,-0.0653,-0.0653,-0.0654,0,0,0.0313,0.0396,0.0431,0.0571,0.0627,0.0757,0.0832,0.0967,0.1046,0.1138,0.1121,0.1034,0.0616,0.0293,-0.0103,-0.0378,-0.0446,-0.0437,-0.0422,-0.0318,-0.0314,-0.0587,-0.0549,0,0,0,0,0]}],[{"header":{"parameterUnit":"m.s-1","parameterCategory":2,"la1":30.2991,"la2":30.254,"lo1":-89.0895,"lo2":-89.0444,"dy":0.0017,"dx":0.0017,"nx":28,"ny":28,"refTime":"2025-01-12T09:00:00:Z","depth":"4","parameterNumber":2,"parameterNumberName":"U-component_of_CURRENTS"},"data":[0,0,0,0,0,0,0,0,0,0,0,0,0,0,0,0,0,0,0,0,0,0,0,0,0,0,0,0,0,0,0,0,0,0,0,0,0,0,0,0,0,0,0,0,0,0,0,0,0,0,0,0,0,0,0,0,0,0,0.1358,0.1359,0,0.1434,0.1435,0.1435,0.1492,0.1493,0.1493,0.1494,0.1565,0.1567,0.1568,0,0,0,0,0,0,0,0,0,0,0,0,0,0.1252,0.1253,0.1358,0.1359,0.136,0.1434,0.1435,0.1435,0.1492,0.1493,0.1493,0.1494,0.1565,0.1566,0.1568,0,0,0,0,0,0,0,0,0,0,0,0,0,0.1308,0.1254,0.1358,0.1399,0.1403,0.1434,0.1435,0.1436,0.1492,0.1493,0.1494,0.1495,0.1564,0.1566,0.1568,0.156,0,0,0.1574,0.1575,0,0,0,0,0,0,0,0,0.1305,0.1311,0.1391,0.1396,0.1401,0.1456,0.1424,0.1478,0.1491,0.1456,0.1494,0.1495,0.1529,0.1534,0.1543,0.1563,0.1566,0.1574,0.1575,0.1576,0.1577,0,0,0,0,0,0,0,0.1301,0.1308,0.1386,0.1393,0.1398,0.141,0.1419,0.1434,0.1484,0.1459,0.1464,0.1475,0.1531,0.1541,0.1545,0.1567,0.1574,0.1576,0.1577,0.1578,0.1678,0.1679,0,0,0,0,0,0,0.1295,0.1305,0.1384,0.1389,0.1357,0.1411,0.1421,0.1436,0.1484,0.1493,0.1474,0.1477,0.1537,0.1543,0.1548,0.1629,0.1576,0.1578,0.1579,0.1676,0.1678,0.168,0,0,0,0,0,0,0.1292,0.1301,0.1381,0.135,0.1361,0.1412,0.1428,0.1437,0.1478,0.1496,0.1505,0.151,0.1538,0.1545,0.1591,0.1629,0.1579,0.1581,0.1675,0.1677,0.1679,0.1734,0,0,0,0,0,0,0.1289,0.13,0.1322,0.1349,0.1363,0.1419,0.1428,0.1438,0.1483,0.1488,0.1529,0.1535,0.154,0.1589,0.1593,0.1631,0.1582,0.1673,0.1676,0.1678,0.1731,0.1738,0.1745,0,0,0,0,0,0.1285,0.1306,0.1322,0.1333,0.1386,0.142,0.1428,0.1466,0.1484,0.1506,0.1537,0.1536,0.161,0.1591,0.1596,0.1635,0.1671,0.1675,0.1678,0.1727,0.1737,0.1745,0,0,0,0,0,0,0.1271,0.1314,0.1333,0.1367,0.1402,0.1431,0.146,0.1481,0.1523,0.1539,0.1552,0.156,0.1615,0.1616,0.1594,0.1673,0.1642,0.1646,0.1678,0.1686,0.1693,0.1694,0.1584,0,0,0,0,0,0.1277,0.1309,0.1345,0.1376,0.1395,0.1432,0.1457,0.1483,0.1517,0.1538,0.1567,0.1598,0.1627,0.165,0.1672,0.1712,0.1716,0.1741,0.1749,0.1755,0.1759,0.1794,0.1805,0.1691,0.1691,0.1691,0,0,0.1281,0.131,0.1329,0.1377,0.1407,0.144,0.1451,0.1497,0.1533,0.1537,0.1603,0.1625,0.1643,0.1692,0.1717,0.1702,0.1792,0.1759,0.1764,0.1765,0.1799,0.181,0.182,0.1694,0.1693,0.1693,0,0,0.1294,0.1331,0.1359,0.1391,0.1444,0.1466,0.1485,0.1534,0.1569,0.1623,0.164,0.1685,0.173,0.1753,0.1767,0.1825,0.1826,0.1839,0.188,0.1914,0.1923,0.1932,0.196,0.197,0.1845,0.1845,0.1845,0,0.1299,0.1339,0.1373,0.1407,0.1439,0.148,0.1516,0.1552,0.1613,0.1646,0.1654,0.174,0.1756,0.1814,0.1839,0.1841,0.186,0.1845,0.1923,0.1931,0.1939,0.1966,0.1976,0.1848,0.1848,0.1847,0.1847,0,0.1324,0.1369,0.1389,0.1446,0.1483,0.1523,0.1572,0.1622,0.1668,0.1703,0.1781,0.1809,0.186,0.1876,0.1878,0.1947,0.1943,0.1926,0.1899,0.1954,0.1978,0.1989,0.1852,0.1851,0.185,0.185,0,0,0.1303,0.139,0.1401,0.1439,0.1511,0.1541,0.1607,0.1674,0.1726,0.1788,0.1853,0.191,0.1936,0.1954,0.197,0.2001,0.2074,0.1996,0.1996,0.202,0.2158,0.2051,0.2052,0.2077,0.2079,0.208,0.2156,0,0.1318,0.1383,0.1426,0.1495,0.1532,0.1594,0.165,0.1718,0.1779,0.1851,0.1899,0.1965,0.1963,0.2002,0.2036,0.2068,0.2103,0.2055,0.2104,0.2105,0.2001,0.206,0.2086,0.2164,0.2166,0.2167,0.2169,0,0.1324,0.1372,0.1438,0.1529,0.1552,0.1602,0.1703,0.176,0.186,0.1911,0.1985,0.2024,0.2101,0.208,0.2166,0.2141,0.2159,0.2171,0.2174,0.206,0.2017,0.2097,0.2187,0.2185,0.2184,0.2183,0.2182,0,0.1285,0.1378,0.1435,0.1466,0.157,0.1623,0.1685,0.1785,0.1843,0.1959,0.2015,0.2098,0.2159,0.2196,0.2239,0.2215,0.2318,0.228,0.2199,0.2192,0.2239,0.2229,0.2333,0.2333,0.2333,0.2333,0.2332,0,0.1269,0.1319,0.1429,0.1459,0.1534,0.1616,0.1702,0.1778,0.1886,0.1956,0.2049,0.2111,0.2194,0.226,0.2273,0.2276,0.2351,0.2218,0.2207,0.2262,0.2254,0.2247,0.2236,0.2335,0.2335,0.2334,0.2334,0,0.1214,0.1287,0.1357,0.1476,0.1518,0.1573,0.1703,0.1758,0.1878,0.1973,0.2017,0.2148,0.2235,0.23,0.2372,0.2315,0.2327,0.2308,0.2382,0.2373,0.2167,0.2159,0.2212,0.2209,0.2206,0.2204,0.2202,0,0.1188,0.122,0.135,0.1393,0.1454,0.1548,0.1607,0.1738,0.1798,0.1979,0.2014,0.2151,0.2223,0.2235,0.2314,0.2338,0.2311,0.2298,0.2207,0.2172,0.2157,0.2153,0.2147,0.2198,0.2198,0.2197,0.2196,0,0.1135,0.1194,0.1251,0.1337,0.141,0.1478,0.1581,0.161,0.1763,0.1886,0.1961,0.2014,0.2113,0.2163,0.221,0.2218,0.2291,0.227,0.2274,0.2188,0.2156,0.2143,0.2141,0.2187,0.2189,0.2189,0.219,0,0.1096,0.1118,0.12,0.1267,0.1349,0.1391,0.1453,0.1529,0.1601,0.1794,0.1819,0.1965,0.209,0.2105,0.2148,0.2154,0.211,0.2024,0.204,0.2051,0.1965,0.1898,0.1852,0,0,0,0,0,0.1046,0.1067,0.1124,0.1188,0.1263,0.1314,0.1428,0.1493,0.1637,0.1643,0.1724,0.1806,0.1878,0.1956,0.193,0.2089,0.2124,0.2051,0.2033,0.2137,0.2148,0.2062,0,0,0,0,0,0,0.1014,0.1064,0.1091,0.1109,0.1136,0.1206,0.1273,0.1372,0.1384,0.1535,0.158,0.1699,0.1793,0.187,0.1894,0.1919,0.1873,0.2145,0.2141,0.2131,0.2141,0.2149,0.2065,0,0,0,0,0]},{"header":{"parameterUnit":"m.s-1","parameterCategory":2,"la1":30.2991,"la2":30.254,"lo1":-89.0895,"lo2":-89.0444,"dy":0.0017,"dx":0.0017,"nx":28,"ny":28,"refTime":"2025-01-12T09:00:00:Z","depth":"4","parameterNumber":3,"parameterNumberName":"V-component_of_CURRENTS"},"data":[0,0,0,0,0,0,0,0,0,0,0,0,0,0,0,0,0,0,0,0,0,0,0,0,0,0,0,0,0,0,0,0,0,0,0,0,0,0,0,0,0,0,0,0,0,0,0,0,0,0,0,0,0,0,0,0,0,0,0.0074,0.0073,0,0.0026,0.0026,0.0025,-0.0012,-0.0012,-0.0012,-0.0013,-0.0063,-0.0064,-0.0065,0,0,0,0,0,0,0,0,0,0,0,0,0,0.011,0.0109,0.0074,0.0073,0.0073,0.0026,0.0026,0.0025,-0.0012,-0.0012,-0.0013,-0.0013,-0.0063,-0.0064,-0.0065,0,0,0,0,0,0,0,0,0,0,0,0,0,0.0081,0.0109,0.0074,0.0049,0.0046,0.0026,0.0026,0.0025,-0.0012,-0.0012,-0.0013,-0.0013,-0.0062,-0.0064,-0.0065,-0.0064,0,0,-0.007,-0.0071,0,0,0,0,0,0,0,0,0.0083,0.008,0.0053,0.005,0.0047,0.0013,0.002,-0.0005,-0.0011,0.001,-0.0013,-0.0013,-0.0038,-0.0041,-0.0049,-0.0067,-0.0069,-0.007,-0.0071,-0.0072,-0.0072,0,0,0,0,0,0,0,0.0085,0.0082,0.0055,0.0052,0.0049,0.0032,0.0028,0.0015,-0.001,0.0008,0.0006,0.0,-0.0039,-0.0047,-0.005,-0.007,-0.007,-0.0072,-0.0072,-0.0073,-0.0103,-0.0103,0,0,0,0,0,0,0.0093,0.0084,0.0056,0.0053,0.0064,0.0032,0.0027,0.0024,-0.001,-0.0016,0.0001,-0.0001,-0.0045,-0.0049,-0.0052,-0.006,-0.0072,-0.0073,-0.0074,-0.0103,-0.0103,-0.0103,0,0,0,0,0,0,0.0094,0.0091,0.0058,0.0067,0.0062,0.0032,0.0029,0.0024,0.0011,-0.0016,-0.0022,-0.0006,-0.0045,-0.005,-0.0064,-0.0062,-0.0074,-0.0075,-0.0104,-0.0103,-0.0103,-0.007,0,0,0,0,0,0,0.0095,0.0092,0.0094,0.0068,0.0062,0.005,0.0029,0.0023,0.0009,0.0006,-0.0024,-0.0029,-0.0046,-0.0061,-0.0065,-0.0064,-0.0076,-0.0104,-0.0103,-0.0103,-0.0072,-0.0069,-0.0067,0,0,0,0,0,0.0097,0.0105,0.0094,0.0091,0.0065,0.005,0.0046,0.0022,0.0009,0.0008,-0.0013,-0.0028,-0.0063,-0.0062,-0.0067,-0.0066,-0.0104,-0.0104,-0.0103,-0.0073,-0.007,-0.0067,0,0,0,0,0,0,0.0122,0.0101,0.0089,0.009,0.0072,0.0044,0.0042,0.0024,0.0006,0.0003,-0.0025,-0.0031,-0.0044,-0.0058,-0.0056,-0.0075,-0.0087,-0.0087,-0.0062,-0.0059,-0.0057,-0.0046,-0.0078,0,0,0,0,0,0.0129,0.0129,0.0103,0.0104,0.0097,0.0069,0.006,0.0043,0.0023,0.0014,-0.0009,-0.003,-0.0045,-0.0054,-0.0071,-0.0078,-0.0103,-0.0081,-0.0079,-0.0077,-0.0072,-0.0112,-0.0113,-0.0102,-0.0102,-0.0102,0,0,0.014,0.0127,0.0128,0.011,0.0094,0.0092,0.0062,0.0052,0.0048,0.0013,0.0002,-0.0023,-0.0046,-0.0056,-0.0063,-0.0068,-0.0093,-0.0076,-0.0074,-0.0071,-0.0112,-0.0113,-0.0114,-0.0102,-0.0102,-0.0102,0,0,0.0164,0.015,0.0158,0.0145,0.0124,0.0109,0.0107,0.0077,0.0063,0.0049,0.0023,0.0,-0.0024,-0.0042,-0.0052,-0.0046,-0.008,-0.0054,-0.0033,-0.0072,-0.0073,-0.0075,-0.0108,-0.0112,-0.0051,-0.0051,-0.0051,0,0.0177,0.0181,0.0158,0.016,0.0156,0.0119,0.0128,0.0109,0.0078,0.0069,0.0051,0.0006,-0.0017,-0.0029,-0.0029,-0.0041,-0.0068,-0.004,-0.0069,-0.0071,-0.0073,-0.0107,-0.0112,-0.005,-0.005,-0.005,-0.005,0,0.0203,0.0205,0.021,0.0202,0.0197,0.0196,0.0171,0.0157,0.0133,0.011,0.0084,0.0046,0.002,0.0006,-0.0009,-0.0031,-0.0048,-0.0063,-0.0075,-0.0072,-0.0108,-0.0114,-0.0047,-0.0048,-0.0048,-0.0049,0,0,0.0236,0.023,0.0231,0.0238,0.0218,0.022,0.0214,0.02,0.0197,0.0153,0.0143,0.0102,0.007,0.0056,0.0025,-0.001,-0.0051,-0.0039,-0.0042,-0.007,-0.0138,-0.0135,-0.0142,-0.0075,-0.0076,-0.0077,-0.0157,0,0.0262,0.0282,0.0271,0.0293,0.0302,0.0274,0.0276,0.0257,0.0228,0.0208,0.0156,0.0135,0.0093,0.0078,0.0035,-0.0025,-0.0066,-0.0027,-0.0138,-0.0141,-0.0138,-0.0148,-0.0079,-0.0162,-0.0163,-0.0164,-0.0165,0,0.0291,0.0301,0.0329,0.0341,0.0344,0.0352,0.0349,0.0342,0.0302,0.028,0.0237,0.0193,0.0141,0.0102,-0.001,0.0015,-0.0058,-0.0112,-0.0117,-0.0128,-0.015,-0.0167,-0.0177,-0.0176,-0.0175,-0.0175,-0.0174,0,0.0329,0.0344,0.0372,0.0374,0.0379,0.0389,0.0387,0.0363,0.0363,0.032,0.0316,0.0237,0.0204,0.01,-0.0013,-0.0017,-0.0139,-0.0159,-0.0227,-0.0227,-0.022,-0.0218,-0.0245,-0.0245,-0.0244,-0.0244,-0.0244,0,0.036,0.0384,0.0392,0.0407,0.0444,0.0429,0.0456,0.0439,0.042,0.043,0.0355,0.0345,0.0199,0.0113,0.0,-0.0128,-0.0135,-0.0224,-0.0249,-0.0205,-0.02,-0.0225,-0.0222,-0.0247,-0.0246,-0.0246,-0.0245,0,0.0395,0.0399,0.0434,0.0452,0.0463,0.0486,0.0508,0.0521,0.0498,0.0508,0.0499,0.0417,0.0306,0.0161,-0.0005,-0.01,-0.0228,-0.0275,-0.0209,-0.0229,-0.0295,-0.0289,-0.036,-0.0361,-0.0361,-0.0362,-0.0362,0,0.0414,0.0435,0.0473,0.0499,0.0511,0.0543,0.0568,0.0559,0.0578,0.0558,0.0571,0.0471,0.0401,0.018,0.0014,-0.0206,-0.0239,-0.0311,-0.0314,-0.0291,-0.0308,-0.0301,-0.0295,-0.0363,-0.0363,-0.0363,-0.0363,0,0.0452,0.0465,0.0493,0.0548,0.0585,0.0628,0.0664,0.0685,0.0679,0.0665,0.0633,0.051,0.0385,0.0196,0.0022,-0.0135,-0.0267,-0.0317,-0.0318,-0.0321,-0.0295,-0.031,-0.0303,-0.0365,-0.0365,-0.0364,-0.0364,0,0.0481,0.0507,0.0546,0.0593,0.0645,0.0696,0.0711,0.0733,0.0743,0.0716,0.0705,0.0561,0.0467,0.0233,0.0077,-0.0082,-0.0129,-0.0186,-0.0194,-0.0195,-0.0127,-0.0069,-0.0091,0,0,0,0,0,0.0505,0.0538,0.0588,0.064,0.0692,0.0725,0.0771,0.0778,0.0779,0.0768,0.0735,0.0619,0.0382,0.0281,0.0123,0.0055,-0.0164,-0.0137,-0.0235,-0.0374,-0.0372,-0.0321,0,0,0,0,0,0,0.0523,0.0572,0.0593,0.067,0.0713,0.0776,0.0808,0.0809,0.0802,0.0778,0.0661,0.0582,0.0357,0.0481,0.0125,0.0074,-0.0011,-0.0252,-0.0256,-0.0375,-0.0374,-0.0372,-0.0319,0,0,0,0,0]}]]